Location: Lake of the Woods (North-East)
(49.6672°N, 94.8656°W)
Time: 00:46:50
(UTC-06:00)

Daily predictions for brighter satellites

Satellite Brightness Start Highest point End
(mag) Time Altitude Azimuth Time Altitude Azimuth Time Altitude Azimuth
CENTAUR R/B 4.2 03:57:18 24° SE 03:58:57 27° ESE 04:04:30 10° ENE
ADEOS II 4.1 03:56:13 10° NNE 03:58:20 22° NE 03:58:20 22° NE
Cosmos 2219 Rocket 3.8 04:04:54 29° NE 04:04:54 29° NE 04:07:37 10° NE
Cosmos 2333 Rocket 3.6 04:08:13 34° ENE 04:08:13 34° ENE 04:11:39 10° NE
ATLAS 5 CENTAUR R/B 4.3 04:10:08 18° NNE 04:10:08 18° NNE 04:11:42 10° NE
ATLAS 3B R/B 3.9 04:15:40 33° N 04:15:40 33° N 04:20:18 10° NE
NOSS 3-2 (C) 4.0 04:22:29 55° NE 04:22:29 55° NE 04:27:46 10° NE
Cosmos 2278 Rocket 4.5 04:27:06 13° SSE 04:27:06 13° SSE 04:27:42 10° SSE
Cosmos 1709 Rocket 4.5 04:23:34 27° SSE 04:26:49 57° E 04:32:55 10° NNE
SL-16 R/B 3.8 04:29:04 10° SSE 04:34:00 31° ESE 04:38:57 10° NE
COSMOS 2428 4.2 04:40:23 26° N 04:40:23 26° N 04:42:56 10° NNE
Cosmos 1943 Rocket 4.5 04:41:21 12° N 04:43:41 15° NNE 04:46:42 10° ENE
Cosmos 773 Rocket 4.5 04:45:17 56° ESE 04:45:20 56° ESE 04:50:22 10° NNE
Cosmos 2360 Rocket 4.2 04:51:15 16° N 04:51:15 16° N 04:52:44 10° NNE
NOSS 3-2 (A) 3.9 04:49:27 52° N 04:49:27 52° N 04:55:25 10° NE
Feng Yun 1-1 Rocket 4.5 04:52:14 10° NNE 04:57:56 69° ESE 05:03:27 10° S
CZ-4C R/B 3.7 04:59:49 26° N 04:59:49 26° N 05:05:08 10° NE
ADEOS Rocket 4.5 04:58:01 10° N 04:59:56 21° N 04:59:56 21° N
Cosmos 2237 Rocket 2.0 05:05:58 75° NNW 05:05:58 75° NNW 05:11:23 10° NNE
Meteor 1-18 Rocket 4.4 05:02:42 24° N 05:06:22 77° ENE 05:12:19 10° SSE
SL-16 R/B 4.4 05:11:54 11° N 05:11:54 11° N 05:12:35 10° N
COSMO-SKYMED 1 2.7 05:13:11 10° SSE 05:17:30 72° ENE 05:18:11 59° NNE
Cosmos 1680 Rocket 4.0 05:13:40 10° S 05:18:48 60° ESE 05:23:57 10° NNE
Cosmos 921 Rocket 3.1 05:19:06 66° NNE 05:19:36 75° ENE 05:24:06 10° SSE
USA 215 3.5 05:13:57 10° ENE 05:20:27 66° SE 05:24:52 22° SW
Lacrosse 5 rocket 2.0 05:23:09 47° NNE 05:23:09 47° NNE 05:26:31 10° NE
SL-23 DEB 4.5 05:24:47 41° ENE 05:24:47 41° ENE 05:27:05 10° E
Cosmos 292 Rocket 4.2 05:24:49 10° S 05:29:34 61° ESE 05:34:21 10° NNE
SJ-6F 4.4 05:25:42 10° NNE 05:29:49 78° ESE 05:33:53 10° S
NOAA 6 4.1 05:25:24 10° NNE 05:30:33 79° ESE 05:35:41 10° SSW
Cosmos 2369 Rocket 3.3 05:26:57 17° NNW 05:31:05 41° NE 05:36:28 10° ESE
Cosmos 1315 Rocket 3.6 05:34:15 38° N 05:34:15 38° N 05:36:50 10° N
Cosmos 2074 Rocket 4.1 05:27:46 10° S 05:34:03 80° E 05:40:21 10° NNE
Cosmos 2112 Rocket 4.1 05:32:06 10° SSW 05:37:18 73° ESE 05:42:30 10° NNE
Meteor 1-20 Rocket 4.3 05:33:13 10° S 05:38:47 78° E 05:44:18 10° NNE
Cosmos 1980 4.0 05:39:07 44° WNW 05:39:33 44° NW 05:45:00 10° NNE
ADEOS II 3.0 05:36:00 10° N 05:39:17 31° NNW 05:39:17 31° NNW
Meteor 1-14 Rocket 4.2 05:38:54 10° SSW 05:44:29 59° WNW 05:50:01 10° N
NOSS 0 Rocket 4.3 05:44:38 38° W 05:46:05 44° NW 05:52:02 10° NNE
Cosmos 1300 Rocket 4.5 05:41:50 10° SSE 05:46:07 50° E 05:50:24 10° NNE
Cosmos 2219 Rocket 3.0 05:46:40 31° NW 05:46:40 31° NW 05:51:23 10° NNE
Cosmos 2184 Rocket 3.9 05:40:27 10° S 05:46:37 88° W 05:52:52 10° N
Cosmos 2297 4.4 05:48:49 32° WSW 05:48:49 32° WSW 05:53:25 10° SSW
CENTAUR R/B 2.5 05:44:34 22° SW 05:48:53 76° NW 05:56:05 10° NE
Okean 1 3.2 05:48:31 50° NW 05:49:22 65° W 05:53:22 10° S
Cosmos 2333 Rocket 2.8 05:50:16 35° WNW 05:50:39 35° NW 05:55:50 10° NNE
ATLAS 5 CENTAUR R/B 3.6 05:51:41 18° NNW 05:52:59 20° N 05:57:09 10° NE
Meteor 1-19 Rocket 4.5 05:51:07 10° N 05:57:01 74° ENE 06:02:50 10° SSE
Cosmos 1238 Rocket 3.7 05:59:41 37° WNW 06:00:17 39° W 06:05:05 10° SSW
Cosmos 2154 Rocket 4.4 05:55:38 10° S 06:01:46 67° E 06:07:56 10° NNE
Meteor 1-11 Rocket 4.5 05:56:52 10° S 06:02:36 57° E 06:08:13 10° NNE
Cosmos 2151 Rocket 3.6 05:59:58 10° SSW 06:04:24 54° WNW 06:08:50 10° N
SKYMED 2 4.0 06:01:38 10° SSW 06:05:41 39° W 06:06:48 33° WNW
ATLAS 3B R/B 4.0 06:02:55 18° NW 06:06:24 26° N 06:12:07 10° NE
Tiangong 2 3.3 06:04:56 15° SSW 06:06:28 20° S 06:08:52 10° ESE
Meteor 1-13 Rocket 4.3 06:05:18 10° NNW 06:11:15 76° W 06:17:11 10° S
Meteor 1-25 Rocket 4.3 06:05:33 10° SSW 06:11:16 55° WNW 06:17:00 10° N
Cosmos 1346 Rocket 3.1 06:10:19 33° NW 06:11:25 42° W 06:15:07 10° SSW
CZ-4 R/B 2.8 06:08:34 10° NNE 06:12:23 40° E 06:16:06 10° S
NOSS 3-2 (C) 4.4 06:09:57 24° WNW 06:12:46 33° NNW 06:19:08 10° NE
Cosmos 1812 4.2 06:15:05 21° WSW 06:15:05 21° WSW 06:17:00 10° SW
Cosmos 2056 Rocket 3.5 06:11:44 18° NNW 06:15:30 59° WSW 06:20:32 10° S
Lacrosse 4 Rocket 3.4 06:12:14 10° NNW 06:15:37 22° NE 06:18:55 10° E
Cosmos 1602 3.8 06:12:11 10° S 06:16:08 82° E 06:20:08 10° NNE
SL-08 ROCKET BODY 4.4 06:10:37 10° SSW 06:16:25 52° WNW 06:22:12 10° N
Okean-O 4.3 06:13:24 10° N 06:15:05 18° NNW 06:15:05 18° NNW
SL-16 R/B 2.3 06:12:23 10° SW 06:17:55 51° NW 06:23:27 10° NNE
CSL-04 DEB 4.3 06:16:24 10° N 06:20:23 63° WNW 06:24:25 10° SSW
IDEFIX/ARIANE 42P 3.9 06:17:17 10° NNE 06:22:15 43° E 06:27:11 10° S
COSMOS 2428 4.4 06:22:25 15° NW 06:23:03 15° NNW 06:26:21 10° N
SMAP 4.4 06:19:02 10° NNE 06:23:30 43° E 06:27:56 10° S
Cosmos 1536 Rocket 4.5 06:25:02 22° NW 06:26:36 27° W 06:30:19 10° SW
Cosmos 1610 Rocket 4.4 06:20:41 10° SSW 06:26:48 64° WNW 06:33:03 10° N
Lacrosse 5 3.9 06:22:43 10° S 06:27:09 30° SE 06:31:34 10° ENE
Cosmos 1943 Rocket 2.9 06:23:25 10° NNW 06:28:48 51° NE 06:34:09 10° SE
Meteor 1-23 Rocket 4.3 06:23:53 10° N 06:29:30 83° ENE 06:35:03 10° SSE
Cosmos 2263 4.4 06:23:52 10° NNW 06:29:32 74° ENE 06:35:08 10° SE
Cosmos 1624 Rocket 4.4 06:25:49 16° NW 06:29:43 43° WSW 06:34:41 10° S
YAOGAN 1 3.6 06:29:20 10° NNE 06:33:34 49° E 06:37:45 10° S
IRS-1A Rocket 4.4 06:29:20 10° NNE 06:35:02 85° ESE 06:40:48 10° SSW
Ariane Rocket 3.1 06:30:12 10° N 06:35:08 54° WNW 06:40:03 10° SW
Meteor 1-29 3.2 06:32:26 10° SSE 06:35:46 68° ENE 06:39:09 10° N
Cosmos 1536 2.8 06:33:48 10° S 06:37:48 87° E 06:41:50 10° N
DNEPR-1 R/B 4.4 06:31:49 10° SW 06:38:54 81° NW 06:44:40 10° NE
GRACE-2 3.8 06:37:55 10° N 06:40:44 87° E 06:43:30 10° S
GRACE-1 3.8 06:38:21 10° N 06:41:09 90° SE 06:43:56 10° S
Helios 1B rocket 2.4 06:37:57 10° SSE 06:42:06 79° WSW 06:46:17 10° NNW
Cosmos 192 4.3 06:37:46 10° SSW 06:42:41 89° WNW 06:47:38 10° NNE
Meteor 1-28 Rocket 4.4 06:43:17 10° SSW 06:46:23 24° W 06:48:54 13° NW
Cosmos 1025 Rocket 3.1 06:43:52 10° NNW 06:48:14 61° W 06:52:32 10° S
Okean 1-7 Rocket 4.0 06:45:24 10° NNW 06:49:31 39° W 06:53:36 10° SSW
Okean 1 Rocket 3.2 06:45:31 10° SSW 06:49:47 48° WNW 06:54:04 10° N
CZ-4C R/B 4.0 06:45:00 11° NW 06:50:12 27° NNE 06:56:09 10° ENE
Cosmos 2237 Rocket 3.5 06:47:52 14° WNW 06:50:44 20° NW 06:54:49 10° N
Meteor 2-4 Rocket 3.7 06:45:27 10° NNW 06:50:49 60° W 06:56:17 10° S
Cosmos 44 Rocket 4.0 06:47:33 10° SSW 06:52:40 63° SE 06:57:43 10° NE
Nadezhda 3 Rocket 4.4 06:47:56 10° NNW 06:53:52 44° W 06:59:50 10° SSW
COSMO-SKYMED 1 4.3 06:51:50 10° WSW 06:54:11 14° W 06:55:23 13° WNW
Cosmos 1544 Rocket 4.3 06:52:13 10° S 06:56:28 58° E 07:00:48 10° NNE
Meteor 2-8 Rocket 4.4 06:51:36 10° NNW 06:57:46 77° W 07:03:54 10° S
Cosmos 1633 3.1 06:56:13 10° SW 06:59:36 35° WNW 07:03:00 10° N
Cosmos 1680 Rocket 4.5 06:57:00 10° WSW 07:01:19 26° NW 07:05:40 10° N
Cosmos 1484 Rocket 3.9 06:58:32 10° NNE 07:02:11 46° E 07:05:50 10° S
Lacrosse 5 rocket 2.5 06:58:53 12° WNW 07:02:12 31° N 07:06:08 10° ENE
USA 215 3.4 06:57:04 10° ENE 07:03:29 61° NNW 07:09:53 10° W
CSL-04 Debris 4.4 06:59:06 10° N 07:04:20 48° WNW 07:09:33 10° SW
Cosmos 1340 2.6 07:00:57 10° NNW 07:04:45 72° W 07:08:31 10° S
Cosmos 1452 Rocket 3.7 07:00:03 10° NNW 07:05:09 52° WSW 07:10:15 10° S
CSL-04 Rocket 4.1 07:00:48 10° N 07:06:00 42° WNW 07:11:10 10° SW
Meteor 1-5 Rocket 4.2 07:01:57 10° S 07:07:20 88° ESE 07:12:41 10° NNE
Cosmos 1892 Rocket 3.7 07:09:10 10° NNW 07:13:33 58° W 07:17:55 10° S
Cosmos 2341 Rocket 4.2 07:07:37 10° SSW 07:13:45 52° WNW 07:19:52 10° N
Cosmos 1727 Rocket 4.1 07:08:53 10° N 07:15:06 90° SW 07:21:18 10° S
Cosmos 2369 Rocket 2.8 07:09:48 10° NW 07:15:08 41° WSW 07:20:25 10° S
Cosmos 1603 3.9 07:09:45 10° SW 07:15:15 48° NW 07:20:44 10° NNE
Cosmos 1975 3.9 07:14:38 10° S 07:18:36 50° E 07:22:36 10° NNE
